Year,Month,Day,Hour,Minute,Value (Times are PST for insolation in W/m^2)
2016,10,31,00,00,0.00
2016,10,31,00,01,0.00
2016,10,31,00,02,0.00
2016,10,31,00,03,0.00
2016,10,31,00,04,0.00
2016,10,31,00,05,0.00
2016,10,31,00,06,0.00
2016,10,31,00,07,0.00
2016,10,31,00,08,0.00
2016,10,31,00,09,0.00
2016,10,31,00,10,0.00
2016,10,31,00,11,0.00
2016,10,31,00,12,0.00
2016,10,31,00,13,0.00
2016,10,31,00,14,0.00
2016,10,31,00,15,0.00
2016,10,31,00,16,0.00
2016,10,31,00,17,0.00
2016,10,31,00,18,0.00
2016,10,31,00,19,0.00
2016,10,31,00,20,0.00
2016,10,31,00,21,0.00
2016,10,31,00,22,0.00
2016,10,31,00,23,0.00
2016,10,31,00,24,0.00
2016,10,31,00,25,0.00
2016,10,31,00,26,0.00
2016,10,31,00,27,0.00
2016,10,31,00,28,0.00
2016,10,31,00,29,0.00
2016,10,31,00,30,0.00
2016,10,31,00,31,0.00
2016,10,31,00,32,0.00
2016,10,31,00,33,0.00
2016,10,31,00,34,0.00
2016,10,31,00,35,0.00
2016,10,31,00,36,0.00
2016,10,31,00,37,0.00
2016,10,31,00,38,0.00
2016,10,31,00,39,0.00
2016,10,31,00,40,0.00
2016,10,31,00,41,0.00
2016,10,31,00,42,0.00
2016,10,31,00,43,0.00
2016,10,31,00,44,0.00
2016,10,31,00,45,0.00
2016,10,31,00,46,0.00
2016,10,31,00,47,0.00
2016,10,31,00,48,0.00
2016,10,31,00,49,0.00
2016,10,31,00,50,0.00
2016,10,31,00,51,0.00
2016,10,31,00,52,0.00
2016,10,31,00,53,0.00
2016,10,31,00,54,0.00
2016,10,31,00,55,0.00
2016,10,31,00,56,0.00
2016,10,31,00,57,0.00
2016,10,31,00,58,0.00
2016,10,31,00,59,0.00
2016,10,31,01,00,0.00
2016,10,31,01,01,0.00
2016,10,31,01,02,0.00
2016,10,31,01,03,0.00
2016,10,31,01,04,0.00
2016,10,31,01,05,0.00
2016,10,31,01,06,0.00
2016,10,31,01,07,0.00
2016,10,31,01,08,0.00
2016,10,31,01,09,0.00
2016,10,31,01,10,0.00
2016,10,31,01,11,0.00
2016,10,31,01,12,0.00
2016,10,31,01,13,0.00
2016,10,31,01,14,0.00
2016,10,31,01,15,0.00
2016,10,31,01,16,0.00
2016,10,31,01,17,0.00
2016,10,31,01,18,0.00
2016,10,31,01,19,0.00
2016,10,31,01,20,0.00
2016,10,31,01,21,0.00
2016,10,31,01,22,0.00
2016,10,31,01,23,0.00
2016,10,31,01,24,0.00
2016,10,31,01,25,0.00
2016,10,31,01,26,0.00
2016,10,31,01,27,0.00
2016,10,31,01,28,0.00
2016,10,31,01,29,0.00
2016,10,31,01,30,0.00
2016,10,31,01,31,0.00
2016,10,31,01,32,0.00
2016,10,31,01,33,0.00
2016,10,31,01,34,0.00
2016,10,31,01,35,0.00
2016,10,31,01,36,0.00
2016,10,31,01,37,0.00
2016,10,31,01,38,0.00
2016,10,31,01,39,0.00
2016,10,31,01,40,0.00
2016,10,31,01,41,0.00
2016,10,31,01,42,0.00
2016,10,31,01,43,0.00
2016,10,31,01,44,0.00
2016,10,31,01,45,0.00
2016,10,31,01,46,0.00
2016,10,31,01,47,0.00
2016,10,31,01,48,0.00
2016,10,31,01,49,0.00
2016,10,31,01,50,0.00
2016,10,31,01,51,0.00
2016,10,31,01,52,0.00
2016,10,31,01,53,0.00
2016,10,31,01,54,0.00
2016,10,31,01,55,0.00
2016,10,31,01,56,0.00
2016,10,31,01,57,0.00
2016,10,31,01,58,0.00
2016,10,31,01,59,0.00
2016,10,31,02,00,0.00
2016,10,31,02,01,0.00
2016,10,31,02,02,0.00
2016,10,31,02,03,0.00
2016,10,31,02,04,0.00
2016,10,31,02,05,0.00
2016,10,31,02,06,0.00
2016,10,31,02,07,0.00
2016,10,31,02,08,0.00
2016,10,31,02,09,0.00
2016,10,31,02,10,0.00
2016,10,31,02,11,0.00
2016,10,31,02,12,0.00
2016,10,31,02,13,0.00
2016,10,31,02,14,0.00
2016,10,31,02,15,0.00
2016,10,31,02,16,0.00
2016,10,31,02,17,0.00
2016,10,31,02,18,0.00
2016,10,31,02,19,0.00
2016,10,31,02,20,0.00
2016,10,31,02,21,0.00
2016,10,31,02,22,0.00
2016,10,31,02,23,0.00
2016,10,31,02,24,0.00
2016,10,31,02,25,0.00
2016,10,31,02,26,0.00
2016,10,31,02,27,0.00
2016,10,31,02,28,0.00
2016,10,31,02,29,0.00
2016,10,31,02,30,0.00
2016,10,31,02,31,0.00
2016,10,31,02,32,0.00
2016,10,31,02,33,0.00
2016,10,31,02,34,0.00
2016,10,31,02,35,0.00
2016,10,31,02,36,0.00
2016,10,31,02,37,0.00
2016,10,31,02,38,0.00
2016,10,31,02,39,0.00
2016,10,31,02,40,0.00
2016,10,31,02,41,0.00
2016,10,31,02,42,0.00
2016,10,31,02,43,0.00
2016,10,31,02,44,0.00
2016,10,31,02,45,0.00
2016,10,31,02,46,0.00
2016,10,31,02,47,0.00
2016,10,31,02,48,0.00
2016,10,31,02,49,0.00
2016,10,31,02,50,0.00
2016,10,31,02,51,0.00
2016,10,31,02,52,0.00
2016,10,31,02,53,0.00
2016,10,31,02,54,0.00
2016,10,31,02,55,0.00
2016,10,31,02,56,0.00
2016,10,31,02,57,0.00
2016,10,31,02,58,0.00
2016,10,31,02,59,0.00
2016,10,31,03,00,0.00
2016,10,31,03,01,0.00
2016,10,31,03,02,0.00
2016,10,31,03,03,0.00
2016,10,31,03,04,0.00
2016,10,31,03,05,0.00
2016,10,31,03,06,0.00
2016,10,31,03,07,0.00
2016,10,31,03,08,0.00
2016,10,31,03,09,0.00
2016,10,31,03,10,0.00
2016,10,31,03,11,0.00
2016,10,31,03,12,0.00
2016,10,31,03,13,0.00
2016,10,31,03,14,0.00
2016,10,31,03,15,0.00
2016,10,31,03,16,0.00
2016,10,31,03,17,0.00
2016,10,31,03,18,0.00
2016,10,31,03,19,0.00
2016,10,31,03,20,0.00
2016,10,31,03,21,0.00
2016,10,31,03,22,0.00
2016,10,31,03,23,0.00
2016,10,31,03,24,0.00
2016,10,31,03,25,0.00
2016,10,31,03,26,0.00
2016,10,31,03,27,0.00
2016,10,31,03,28,0.00
2016,10,31,03,29,0.00
2016,10,31,03,30,0.00
2016,10,31,03,31,0.00
2016,10,31,03,32,0.00
2016,10,31,03,33,0.00
2016,10,31,03,34,0.00
2016,10,31,03,35,0.00
2016,10,31,03,36,0.00
2016,10,31,03,37,0.00
2016,10,31,03,38,0.00
2016,10,31,03,39,0.00
2016,10,31,03,40,0.00
2016,10,31,03,41,0.00
2016,10,31,03,42,0.00
2016,10,31,03,43,0.00
2016,10,31,03,44,0.00
2016,10,31,03,45,0.00
2016,10,31,03,46,0.00
2016,10,31,03,47,0.00
2016,10,31,03,48,0.00
2016,10,31,03,49,0.00
2016,10,31,03,50,0.00
2016,10,31,03,51,0.00
2016,10,31,03,52,0.00
2016,10,31,03,53,0.00
2016,10,31,03,54,0.00
2016,10,31,03,55,0.00
2016,10,31,03,56,0.00
2016,10,31,03,57,0.00
2016,10,31,03,58,0.00
2016,10,31,03,59,0.00
2016,10,31,04,00,0.00
2016,10,31,04,01,0.00
2016,10,31,04,02,0.00
2016,10,31,04,03,0.00
2016,10,31,04,04,0.00
2016,10,31,04,05,0.00
2016,10,31,04,06,0.00
2016,10,31,04,07,0.00
2016,10,31,04,08,0.00
2016,10,31,04,09,0.00
2016,10,31,04,10,0.00
2016,10,31,04,11,0.00
2016,10,31,04,12,0.00
2016,10,31,04,13,0.00
2016,10,31,04,14,0.00
2016,10,31,04,15,0.00
2016,10,31,04,16,0.00
2016,10,31,04,17,0.00
2016,10,31,04,18,0.00
2016,10,31,04,19,0.00
2016,10,31,04,20,0.00
2016,10,31,04,21,0.00
2016,10,31,04,22,0.00
2016,10,31,04,23,0.00
2016,10,31,04,24,0.00
2016,10,31,04,25,0.00
2016,10,31,04,26,0.00
2016,10,31,04,27,0.00
2016,10,31,04,28,0.00
2016,10,31,04,29,0.00
2016,10,31,04,30,0.00
2016,10,31,04,31,0.00
2016,10,31,04,32,0.00
2016,10,31,04,33,0.00
2016,10,31,04,34,0.00
2016,10,31,04,35,0.00
2016,10,31,04,36,0.00
2016,10,31,04,37,0.00
2016,10,31,04,38,0.00
2016,10,31,04,39,0.00
2016,10,31,04,40,0.00
2016,10,31,04,41,0.00
2016,10,31,04,42,0.00
2016,10,31,04,43,0.00
2016,10,31,04,44,0.00
2016,10,31,04,45,0.00
2016,10,31,04,46,0.00
2016,10,31,04,47,0.00
2016,10,31,04,48,0.00
2016,10,31,04,49,0.00
2016,10,31,04,50,0.00
2016,10,31,04,51,0.00
2016,10,31,04,52,0.00
2016,10,31,04,53,0.00
2016,10,31,04,54,0.00
2016,10,31,04,55,0.00
2016,10,31,04,56,0.00
2016,10,31,04,57,0.00
2016,10,31,04,58,0.00
2016,10,31,04,59,0.00
2016,10,31,05,00,0.00
2016,10,31,05,01,0.00
2016,10,31,05,02,0.00
2016,10,31,05,03,0.00
2016,10,31,05,04,0.00
2016,10,31,05,05,0.00
2016,10,31,05,06,0.00
2016,10,31,05,07,0.00
2016,10,31,05,08,0.00
2016,10,31,05,09,0.00
2016,10,31,05,10,0.00
2016,10,31,05,11,0.00
2016,10,31,05,12,0.00
2016,10,31,05,13,0.00
2016,10,31,05,14,0.00
2016,10,31,05,15,0.00
2016,10,31,05,16,0.00
2016,10,31,05,17,0.00
2016,10,31,05,18,0.00
2016,10,31,05,19,0.00
2016,10,31,05,20,0.00
2016,10,31,05,21,0.00
2016,10,31,05,22,0.00
2016,10,31,05,23,0.00
2016,10,31,05,24,0.00
2016,10,31,05,25,0.00
2016,10,31,05,26,0.00
2016,10,31,05,27,0.00
2016,10,31,05,28,0.00
2016,10,31,05,29,0.00
2016,10,31,05,30,0.00
2016,10,31,05,31,0.00
2016,10,31,05,32,0.00
2016,10,31,05,33,0.00
2016,10,31,05,34,0.00
2016,10,31,05,35,0.00
2016,10,31,05,36,0.00
2016,10,31,05,37,0.00
2016,10,31,05,38,0.00
2016,10,31,05,39,0.00
2016,10,31,05,40,0.00
2016,10,31,05,41,0.00
2016,10,31,05,42,0.00
2016,10,31,05,43,0.00
2016,10,31,05,44,0.00
2016,10,31,05,45,0.00
2016,10,31,05,46,0.00
2016,10,31,05,47,0.00
2016,10,31,05,48,0.00
2016,10,31,05,49,0.00
2016,10,31,05,50,0.00
2016,10,31,05,51,0.00
2016,10,31,05,52,0.00
2016,10,31,05,53,0.00
2016,10,31,05,54,0.00
2016,10,31,05,55,0.00
2016,10,31,05,56,0.00
2016,10,31,05,57,0.00
2016,10,31,05,58,0.00
2016,10,31,05,59,0.00
2016,10,31,06,00,0.00
2016,10,31,06,01,0.00
2016,10,31,06,02,0.00
2016,10,31,06,03,0.00
2016,10,31,06,04,0.00
2016,10,31,06,05,0.00
2016,10,31,06,06,0.00
2016,10,31,06,07,0.00
2016,10,31,06,08,0.00
2016,10,31,06,09,0.00
2016,10,31,06,10,0.00
2016,10,31,06,11,0.00
2016,10,31,06,12,0.00
2016,10,31,06,13,0.00
2016,10,31,06,14,0.00
2016,10,31,06,15,0.00
2016,10,31,06,16,0.00
2016,10,31,06,17,0.00
2016,10,31,06,18,0.00
2016,10,31,06,19,0.00
2016,10,31,06,20,0.00
2016,10,31,06,21,0.00
2016,10,31,06,22,0.00
2016,10,31,06,23,0.00
2016,10,31,06,24,0.00
2016,10,31,06,25,0.00
2016,10,31,06,26,0.00
2016,10,31,06,27,0.00
2016,10,31,06,28,0.00
2016,10,31,06,29,0.00
2016,10,31,06,30,0.00
2016,10,31,06,31,0.00
2016,10,31,06,32,0.00
2016,10,31,06,33,0.00
2016,10,31,06,34,0.00
2016,10,31,06,35,0.00
2016,10,31,06,36,0.00
2016,10,31,06,37,0.00
2016,10,31,06,38,0.00
2016,10,31,06,39,0.00
2016,10,31,06,40,0.00
2016,10,31,06,41,0.00
2016,10,31,06,42,0.00
2016,10,31,06,43,0.00
2016,10,31,06,44,0.00
2016,10,31,06,45,0.00
2016,10,31,06,46,0.00
2016,10,31,06,47,0.00
2016,10,31,06,48,0.00
2016,10,31,06,49,0.00
2016,10,31,06,50,0.00
2016,10,31,06,51,0.00
2016,10,31,06,52,0.00
2016,10,31,06,53,0.00
2016,10,31,06,54,0.00
2016,10,31,06,55,0.00
2016,10,31,06,56,0.00
2016,10,31,06,57,0.00
2016,10,31,06,58,0.00
2016,10,31,06,59,0.00
2016,10,31,07,00,0.00
2016,10,31,07,01,0.00
2016,10,31,07,02,0.00
2016,10,31,07,03,0.00
2016,10,31,07,04,0.00
2016,10,31,07,05,0.00
2016,10,31,07,06,0.00
2016,10,31,07,07,0.00
2016,10,31,07,08,0.00
2016,10,31,07,09,0.00
2016,10,31,07,10,0.00
2016,10,31,07,11,0.00
2016,10,31,07,12,0.00
2016,10,31,07,13,0.00
2016,10,31,07,14,0.00
2016,10,31,07,15,0.00
2016,10,31,07,16,0.00
2016,10,31,07,17,0.00
2016,10,31,07,18,0.00
2016,10,31,07,19,0.00
2016,10,31,07,20,0.00
2016,10,31,07,21,0.00
2016,10,31,07,22,0.00
2016,10,31,07,23,0.00
2016,10,31,07,24,0.00
2016,10,31,07,25,0.00
2016,10,31,07,26,0.00
2016,10,31,07,27,0.00
2016,10,31,07,28,0.00
2016,10,31,07,29,0.00
2016,10,31,07,30,0.00
2016,10,31,07,31,0.00
2016,10,31,07,32,0.00
2016,10,31,07,33,0.00
2016,10,31,07,34,0.00
2016,10,31,07,35,0.00
2016,10,31,07,36,0.00
2016,10,31,07,37,0.00
2016,10,31,07,38,0.00
2016,10,31,07,39,0.00
2016,10,31,07,40,0.00
2016,10,31,07,41,0.00
2016,10,31,07,42,0.00
2016,10,31,07,43,0.00
2016,10,31,07,44,0.00
2016,10,31,07,45,0.00
2016,10,31,07,46,0.00
2016,10,31,07,47,0.00
2016,10,31,07,48,0.00
2016,10,31,07,49,0.00
2016,10,31,07,50,0.00
2016,10,31,07,51,0.00
2016,10,31,07,52,0.00
2016,10,31,07,53,0.00
2016,10,31,07,54,0.00
2016,10,31,07,55,0.00
2016,10,31,07,56,0.00
2016,10,31,07,57,0.00
2016,10,31,07,58,0.00
2016,10,31,07,59,0.00
2016,10,31,08,00,0.00
2016,10,31,08,01,0.00
2016,10,31,08,02,0.00
2016,10,31,08,03,0.00
2016,10,31,08,04,0.00
2016,10,31,08,05,0.00
2016,10,31,08,06,0.00
2016,10,31,08,07,0.00
2016,10,31,08,08,0.00
2016,10,31,08,09,0.00
2016,10,31,08,10,0.00
2016,10,31,08,11,0.00
2016,10,31,08,12,0.00
2016,10,31,08,13,0.00
2016,10,31,08,14,0.00
2016,10,31,08,15,0.00
2016,10,31,08,16,0.00
2016,10,31,08,17,0.00
2016,10,31,08,18,0.00
2016,10,31,08,19,0.00
2016,10,31,08,20,0.00
2016,10,31,08,21,0.00
2016,10,31,08,22,0.00
2016,10,31,08,23,0.00
2016,10,31,08,24,0.00
2016,10,31,08,25,0.00
2016,10,31,08,26,0.00
2016,10,31,08,27,0.00
2016,10,31,08,28,0.00
2016,10,31,08,29,0.00
2016,10,31,08,30,0.20
2016,10,31,08,31,5.40
2016,10,31,08,32,7.00
2016,10,31,08,33,7.90
2016,10,31,08,34,10.10
2016,10,31,08,35,11.00
2016,10,31,08,36,11.80
2016,10,31,08,37,12.10
2016,10,31,08,38,14.00
2016,10,31,08,39,14.00
2016,10,31,08,40,14.00
2016,10,31,08,41,14.00
2016,10,31,08,42,14.00
2016,10,31,08,43,14.00
2016,10,31,08,44,15.80
2016,10,31,08,45,16.00
2016,10,31,08,46,16.00
2016,10,31,08,47,16.00
2016,10,31,08,48,17.10
2016,10,31,08,49,18.70
2016,10,31,08,50,20.60
2016,10,31,08,51,21.20
2016,10,31,08,52,25.00
2016,10,31,08,53,25.30
2016,10,31,08,54,26.00
2016,10,31,08,55,26.00
2016,10,31,08,56,27.30
2016,10,31,08,57,28.00
2016,10,31,08,58,28.00
2016,10,31,08,59,28.00
2016,10,31,09,00,28.00
2016,10,31,09,01,28.00
2016,10,31,09,02,29.10
2016,10,31,09,03,31.40
2016,10,31,09,04,32.80
2016,10,31,09,05,33.10
2016,10,31,09,06,35.00
2016,10,31,09,07,35.00
2016,10,31,09,08,35.00
2016,10,31,09,09,35.00
2016,10,31,09,10,35.00
2016,10,31,09,11,35.00
2016,10,31,09,12,35.00
2016,10,31,09,13,35.00
2016,10,31,09,14,35.60
2016,10,31,09,15,37.90
2016,10,31,09,16,39.00
2016,10,31,09,17,39.00
2016,10,31,09,18,44.60
2016,10,31,09,19,47.10
2016,10,31,09,20,49.00
2016,10,31,09,21,49.60
2016,10,31,09,22,51.00
2016,10,31,09,23,51.00
2016,10,31,09,24,51.00
2016,10,31,09,25,47.80
2016,10,31,09,26,47.00
2016,10,31,09,27,45.70
2016,10,31,09,28,37.80
2016,10,31,09,29,34.10
2016,10,31,09,30,32.50
2016,10,31,09,31,32.70
2016,10,31,09,32,33.00
2016,10,31,09,33,34.90
2016,10,31,09,34,37.40
2016,10,31,09,35,39.00
2016,10,31,09,36,38.20
2016,10,31,09,37,37.00
2016,10,31,09,38,35.60
2016,10,31,09,39,35.00
2016,10,31,09,40,33.20
2016,10,31,09,41,32.00
2016,10,31,09,42,32.00
2016,10,31,09,43,32.00
2016,10,31,09,44,30.90
2016,10,31,09,45,30.00
2016,10,31,09,46,28.40
2016,10,31,09,47,27.90
2016,10,31,09,48,26.00
2016,10,31,09,49,26.00
2016,10,31,09,50,26.00
2016,10,31,09,51,26.00
2016,10,31,09,52,26.00
2016,10,31,09,53,26.00
2016,10,31,09,54,26.00
2016,10,31,09,55,26.00
2016,10,31,09,56,25.70
2016,10,31,09,57,25.00
2016,10,31,09,58,25.00
2016,10,31,09,59,25.00
2016,10,31,10,00,27.40
2016,10,31,10,01,28.00
2016,10,31,10,02,28.60
2016,10,31,10,03,32.30
2016,10,31,10,04,33.00
2016,10,31,10,05,34.10
2016,10,31,10,06,36.40
2016,10,31,10,07,37.00
2016,10,31,10,08,41.80
2016,10,31,10,09,44.00
2016,10,31,10,10,44.60
2016,10,31,10,11,46.40
2016,10,31,10,12,48.10
2016,10,31,10,13,51.70
2016,10,31,10,14,53.00
2016,10,31,10,15,53.90
2016,10,31,10,16,54.00
2016,10,31,10,17,54.00
2016,10,31,10,18,54.00
2016,10,31,10,19,56.20
2016,10,31,10,20,58.00
2016,10,31,10,21,56.40
2016,10,31,10,22,53.10
2016,10,31,10,23,51.00
2016,10,31,10,24,51.00
2016,10,31,10,25,53.80
2016,10,31,10,26,60.10
2016,10,31,10,27,64.00
2016,10,31,10,28,66.60
2016,10,31,10,29,67.00
2016,10,31,10,30,67.00
2016,10,31,10,31,60.70
2016,10,31,10,32,43.30
2016,10,31,10,33,38.20
2016,10,31,10,34,37.00
2016,10,31,10,35,41.00
2016,10,31,10,36,45.90
2016,10,31,10,37,49.00
2016,10,31,10,38,48.10
2016,10,31,10,39,46.00
2016,10,31,10,40,42.20
2016,10,31,10,41,39.00
2016,10,31,10,42,41.20
2016,10,31,10,43,48.30
2016,10,31,10,44,49.00
2016,10,31,10,45,55.00
2016,10,31,10,46,69.00
2016,10,31,10,47,66.60
2016,10,31,10,48,60.20
2016,10,31,10,49,52.40
2016,10,31,10,50,50.80
2016,10,31,10,51,47.40
2016,10,31,10,52,51.10
2016,10,31,10,53,56.00
2016,10,31,10,54,63.20
2016,10,31,10,55,67.60
2016,10,31,10,56,63.00
2016,10,31,10,57,56.70
2016,10,31,10,58,58.00
2016,10,31,10,59,53.20
2016,10,31,11,00,38.00
2016,10,31,11,01,32.00
2016,10,31,11,02,32.00
2016,10,31,11,03,32.00
2016,10,31,11,04,21.60
2016,10,31,11,05,23.70
2016,10,31,11,06,35.00
2016,10,31,11,07,42.60
2016,10,31,11,08,54.00
2016,10,31,11,09,54.00
2016,10,31,11,10,58.80
2016,10,31,11,11,48.80
2016,10,31,11,12,31.40
2016,10,31,11,13,25.00
2016,10,31,11,14,25.00
2016,10,31,11,15,25.00
2016,10,31,11,16,28.20
2016,10,31,11,17,28.50
2016,10,31,11,18,25.30
2016,10,31,11,19,25.20
2016,10,31,11,20,26.00
2016,10,31,11,21,30.00
2016,10,31,11,22,35.00
2016,10,31,11,23,33.60
2016,10,31,11,24,33.00
2016,10,31,11,25,38.50
2016,10,31,11,26,42.40
2016,10,31,11,27,46.80
2016,10,31,11,28,56.20
2016,10,31,11,29,60.00
2016,10,31,11,30,64.60
2016,10,31,11,31,67.00
2016,10,31,11,32,66.90
2016,10,31,11,33,65.80
2016,10,31,11,34,69.00
2016,10,31,11,35,74.40
2016,10,31,11,36,82.70
2016,10,31,11,37,84.00
2016,10,31,11,38,84.00
2016,10,31,11,39,84.40
2016,10,31,11,40,92.50
2016,10,31,11,41,88.80
2016,10,31,11,42,84.70
2016,10,31,11,43,81.90
2016,10,31,11,44,81.00
2016,10,31,11,45,82.70
2016,10,31,11,46,83.90
2016,10,31,11,47,84.00
2016,10,31,11,48,87.80
2016,10,31,11,49,95.00
2016,10,31,11,50,101.60
2016,10,31,11,51,108.30
2016,10,31,11,52,109.00
2016,10,31,11,53,113.60
2016,10,31,11,54,115.60
2016,10,31,11,55,113.70
2016,10,31,11,56,113.00
2016,10,31,11,57,120.70
2016,10,31,11,58,132.50
2016,10,31,11,59,135.00
2016,10,31,12,00,130.60
2016,10,31,12,01,132.30
2016,10,31,12,02,134.00
2016,10,31,12,03,134.00
2016,10,31,12,04,140.60
2016,10,31,12,05,155.80
2016,10,31,12,06,160.00
2016,10,31,12,07,159.70
2016,10,31,12,08,153.00
2016,10,31,12,09,151.80
2016,10,31,12,10,148.60
2016,10,31,12,11,148.60
2016,10,31,12,12,148.40
2016,10,31,12,13,148.00
2016,10,31,12,14,148.00
2016,10,31,12,15,148.00
2016,10,31,12,16,145.60
2016,10,31,12,17,146.40
2016,10,31,12,18,161.40
2016,10,31,12,19,167.00
2016,10,31,12,20,195.00
2016,10,31,12,21,186.10
2016,10,31,12,22,190.00
2016,10,31,12,23,195.10
2016,10,31,12,24,198.40
2016,10,31,12,25,182.50
2016,10,31,12,26,213.10
2016,10,31,12,27,232.00
2016,10,31,12,28,232.00
2016,10,31,12,29,232.00
2016,10,31,12,30,314.10
2016,10,31,12,31,468.80
2016,10,31,12,32,412.30
2016,10,31,12,33,412.70
2016,10,31,12,34,420.00
2016,10,31,12,35,420.00
2016,10,31,12,36,408.00
2016,10,31,12,37,357.00
2016,10,31,12,38,329.60
2016,10,31,12,39,328.90
2016,10,31,12,40,359.00
2016,10,31,12,41,447.40
2016,10,31,12,42,455.40
2016,10,31,12,43,482.00
2016,10,31,12,44,480.10
2016,10,31,12,45,476.00
2016,10,31,12,46,476.00
2016,10,31,12,47,343.40
2016,10,31,12,48,272.00
2016,10,31,12,49,273.80
2016,10,31,12,50,301.00
2016,10,31,12,51,269.20
2016,10,31,12,52,265.00
2016,10,31,12,53,235.50
2016,10,31,12,54,195.40
2016,10,31,12,55,182.60
2016,10,31,12,56,189.50
2016,10,31,12,57,187.90
2016,10,31,12,58,175.40
2016,10,31,12,59,178.40
2016,10,31,13,00,190.50
2016,10,31,13,01,200.90
2016,10,31,13,02,204.00
2016,10,31,13,03,189.40
2016,10,31,13,04,255.80
2016,10,31,13,05,258.60
2016,10,31,13,06,257.90
2016,10,31,13,07,281.00
2016,10,31,13,08,316.80
2016,10,31,13,09,336.00
2016,10,31,13,10,340.70
2016,10,31,13,11,358.60
2016,10,31,13,12,429.00
2016,10,31,13,13,442.90
2016,10,31,13,14,422.00
2016,10,31,13,15,392.00
2016,10,31,13,16,399.20
2016,10,31,13,17,431.60
2016,10,31,13,18,412.30
2016,10,31,13,19,381.60
2016,10,31,13,20,371.70
2016,10,31,13,21,376.00
2016,10,31,13,22,280.00
2016,10,31,13,23,243.80
2016,10,31,13,24,246.00
2016,10,31,13,25,246.00
2016,10,31,13,26,239.30
2016,10,31,13,27,240.20
2016,10,31,13,28,265.00
2016,10,31,13,29,265.00
2016,10,31,13,30,252.40
2016,10,31,13,31,232.40
2016,10,31,13,32,252.90
2016,10,31,13,33,229.90
2016,10,31,13,34,204.00
2016,10,31,13,35,257.40
2016,10,31,13,36,252.70
2016,10,31,13,37,232.00
2016,10,31,13,38,316.50
2016,10,31,13,39,278.60
2016,10,31,13,40,223.70
2016,10,31,13,41,206.00
2016,10,31,13,42,206.00
2016,10,31,13,43,206.00
2016,10,31,13,44,225.20
2016,10,31,13,45,280.70
2016,10,31,13,46,207.00
2016,10,31,13,47,203.40
2016,10,31,13,48,205.40
2016,10,31,13,49,237.20
2016,10,31,13,50,233.80
2016,10,31,13,51,225.00
2016,10,31,13,52,163.80
2016,10,31,13,53,141.00
2016,10,31,13,54,111.90
2016,10,31,13,55,93.00
2016,10,31,13,56,83.30
2016,10,31,13,57,76.00
2016,10,31,13,58,76.80
2016,10,31,13,59,72.40
2016,10,31,14,00,76.60
2016,10,31,14,01,82.30
2016,10,31,14,02,91.30
2016,10,31,14,03,93.00
2016,10,31,14,04,104.20
2016,10,31,14,05,105.80
2016,10,31,14,06,97.40
2016,10,31,14,07,96.40
2016,10,31,14,08,93.00
2016,10,31,14,09,97.40
2016,10,31,14,10,107.50
2016,10,31,14,11,113.00
2016,10,31,14,12,118.80
2016,10,31,14,13,126.70
2016,10,31,14,14,135.00
2016,10,31,14,15,135.00
2016,10,31,14,16,135.00
2016,10,31,14,17,142.10
2016,10,31,14,18,145.40
2016,10,31,14,19,141.60
2016,10,31,14,20,140.80
2016,10,31,14,21,136.60
2016,10,31,14,22,133.40
2016,10,31,14,23,129.80
2016,10,31,14,24,123.30
2016,10,31,14,25,118.70
2016,10,31,14,26,118.00
2016,10,31,14,27,99.10
2016,10,31,14,28,98.90
2016,10,31,14,29,107.00
2016,10,31,14,30,116.80
2016,10,31,14,31,121.00
2016,10,31,14,32,125.10
2016,10,31,14,33,124.00
2016,10,31,14,34,123.00
2016,10,31,14,35,123.00
2016,10,31,14,36,113.50
2016,10,31,14,37,90.80
2016,10,31,14,38,85.80
2016,10,31,14,39,83.30
2016,10,31,14,40,83.00
2016,10,31,14,41,83.00
2016,10,31,14,42,82.20
2016,10,31,14,43,79.60
2016,10,31,14,44,83.10
2016,10,31,14,45,88.60
2016,10,31,14,46,91.00
2016,10,31,14,47,91.00
2016,10,31,14,48,91.00
2016,10,31,14,49,91.00
2016,10,31,14,50,103.30
2016,10,31,14,51,136.20
2016,10,31,14,52,136.20
2016,10,31,14,53,124.90
2016,10,31,14,54,110.80
2016,10,31,14,55,107.20
2016,10,31,14,56,109.80
2016,10,31,14,57,114.00
2016,10,31,14,58,114.00
2016,10,31,14,59,127.80
2016,10,31,15,00,140.40
2016,10,31,15,01,139.40
2016,10,31,15,02,135.20
2016,10,31,15,03,133.60
2016,10,31,15,04,128.00
2016,10,31,15,05,128.00
2016,10,31,15,06,128.00
2016,10,31,15,07,121.50
2016,10,31,15,08,118.00
2016,10,31,15,09,114.30
2016,10,31,15,10,116.00
2016,10,31,15,11,115.40
2016,10,31,15,12,114.00
2016,10,31,15,13,109.10
2016,10,31,15,14,100.40
2016,10,31,15,15,98.00
2016,10,31,15,16,97.90
2016,10,31,15,17,98.00
2016,10,31,15,18,102.00
2016,10,31,15,19,100.30
2016,10,31,15,20,98.00
2016,10,31,15,21,98.00
2016,10,31,15,22,99.60
2016,10,31,15,23,100.00
2016,10,31,15,24,100.00
2016,10,31,15,25,99.10
2016,10,31,15,26,97.00
2016,10,31,15,27,96.00
2016,10,31,15,28,95.00
2016,10,31,15,29,93.40
2016,10,31,15,30,93.00
2016,10,31,15,31,93.00
2016,10,31,15,32,93.00
2016,10,31,15,33,93.00
2016,10,31,15,34,95.20
2016,10,31,15,35,97.70
2016,10,31,15,36,99.60
2016,10,31,15,37,100.00
2016,10,31,15,38,100.00
2016,10,31,15,39,100.00
2016,10,31,15,40,100.00
2016,10,31,15,41,100.00
2016,10,31,15,42,100.00
2016,10,31,15,43,100.00
2016,10,31,15,44,98.10
2016,10,31,15,45,96.70
2016,10,31,15,46,94.40
2016,10,31,15,47,93.00
2016,10,31,15,48,91.80
2016,10,31,15,49,91.00
2016,10,31,15,50,91.00
2016,10,31,15,51,90.80
2016,10,31,15,52,87.70
2016,10,31,15,53,85.40
2016,10,31,15,54,83.60
2016,10,31,15,55,83.00
2016,10,31,15,56,80.30
2016,10,31,15,57,79.00
2016,10,31,15,58,76.20
2016,10,31,15,59,74.00
2016,10,31,16,00,74.00
2016,10,31,16,01,74.00
2016,10,31,16,02,72.90
2016,10,31,16,03,72.00
2016,10,31,16,04,73.70
2016,10,31,16,05,74.10
2016,10,31,16,06,76.00
2016,10,31,16,07,76.30
2016,10,31,16,08,76.60
2016,10,31,16,09,76.00
2016,10,31,16,10,76.00
2016,10,31,16,11,76.00
2016,10,31,16,12,74.20
2016,10,31,16,13,74.00
2016,10,31,16,14,74.00
2016,10,31,16,15,73.10
2016,10,31,16,16,72.00
2016,10,31,16,17,72.00
2016,10,31,16,18,72.00
2016,10,31,16,19,69.20
2016,10,31,16,20,68.70
2016,10,31,16,21,66.30
2016,10,31,16,22,65.00
2016,10,31,16,23,63.80
2016,10,31,16,24,62.30
2016,10,31,16,25,60.50
2016,10,31,16,26,59.90
2016,10,31,16,27,58.00
2016,10,31,16,28,56.50
2016,10,31,16,29,52.20
2016,10,31,16,30,49.90
2016,10,31,16,31,47.70
2016,10,31,16,32,46.20
2016,10,31,16,33,44.20
2016,10,31,16,34,44.00
2016,10,31,16,35,44.00
2016,10,31,16,36,42.00
2016,10,31,16,37,39.00
2016,10,31,16,38,37.70
2016,10,31,16,39,37.00
2016,10,31,16,40,37.00
2016,10,31,16,41,37.00
2016,10,31,16,42,37.00
2016,10,31,16,43,37.00
2016,10,31,16,44,37.00
2016,10,31,16,45,37.00
2016,10,31,16,46,37.00
2016,10,31,16,47,37.00
2016,10,31,16,48,36.60
2016,10,31,16,49,34.40
2016,10,31,16,50,32.50
2016,10,31,16,51,32.00
2016,10,31,16,52,30.70
2016,10,31,16,53,28.50
2016,10,31,16,54,27.90
2016,10,31,16,55,25.00
2016,10,31,16,56,24.30
2016,10,31,16,57,22.20
2016,10,31,16,58,20.00
2016,10,31,16,59,19.00
2016,10,31,17,00,19.00
2016,10,31,17,01,19.00
2016,10,31,17,02,18.00
2016,10,31,17,03,18.30
2016,10,31,17,04,19.00
2016,10,31,17,05,19.00
2016,10,31,17,06,18.40
2016,10,31,17,07,18.00
2016,10,31,17,08,18.00
2016,10,31,17,09,18.00
2016,10,31,17,10,17.40
2016,10,31,17,11,16.00
2016,10,31,17,12,16.00
2016,10,31,17,13,16.00
2016,10,31,17,14,16.00
2016,10,31,17,15,16.00
2016,10,31,17,16,16.00
2016,10,31,17,17,15.40
2016,10,31,17,18,14.00
2016,10,31,17,19,14.00
2016,10,31,17,20,14.00
2016,10,31,17,21,12.40
2016,10,31,17,22,12.00
2016,10,31,17,23,11.80
2016,10,31,17,24,11.00
2016,10,31,17,25,11.00
2016,10,31,17,26,11.00
2016,10,31,17,27,9.60
2016,10,31,17,28,9.00
2016,10,31,17,29,7.10
2016,10,31,17,30,7.00
2016,10,31,17,31,7.00
2016,10,31,17,32,7.00
2016,10,31,17,33,7.00